YAOGAN 16B

导读

YAOGAN 16B(遥感十六号B星)是中国于2012年11月25日成功发射的遥感卫星,作为中国遥感卫星系列的组成部分,主要承担对地观测任务。该卫星搭载先进遥感载荷,可获取空间地理信息,在国土资源勘查、农业估产、灾害监测与国防安全等领域发挥重要作用,进一步完善了中国遥感卫星网络布局,提升了对地观测能力,推动航天遥感应用持续发展。

Basic Information
目录编号:
39012
目录名称:
YAOGAN 16B
国际标识:
2012-066B
轨道中心:
EARTH
卫星名称:
YAOGAN 16B
卫星全名:
--
卫星状态:
在轨 (已飞行4947 天)
发射日期:
2012-11-25 UTC
国别 :
中国 (CN)
星等 :
--
Orbit Information
数据来源 国际轨道数据 AOE轨道数据
星历时间 2026-06-12T11:08:08+0800
17小时前
查看轨道信息
2026-06-12T07:00:00+0800
21小时前
查看轨道信息
半长轴 7466.95km 7466.945km
偏心率 0.0435213 0.0435389
轨道倾角 63.355° 63.356°
近地点辐角 26.843° 26.937°
升交点赤经 303.085° 303.526°
平近点角 335.441° 220.683°
近地点 763.841km 763.705km
远地点 1413.785km 1413.911km
周期 107.022分钟 107.022分钟
每日圈数 13.45513 13.455145
Detailed Information
使用方式:
暂无
2D Orbit Map
3D Orbit Map
Orbit Altitude Analysis Chart
Orbit Inclination Analysis Chart
Orbit Comprehensive Analysis Chart
View Comprehensive Chart